Theta_e
322 322 322 322 322 322 322 322 323 323 323 323 323 323 322 322 322 322 322 323 320 322 324 324 324 324 323 322 324 321 313 297 297 299 297 298 308 320 321 324 323 325 323 313 310 303 301 300 299 299 296 296 294 296 295 304 306 306 299 294 292 294 292 294 291 290 290 289 289 292 293 294 292 292 293 294 294 293 294 294 292 292 291 292 292 295 298 298
322 322 322 322 322 322 322 322 322 323 323 323 323 323 323 322 322 321 322 322 322 321 323 323 323 323 322 322 323 319 300 297 295 295 295 307 323 322 322 323 323 323 316 302 297 299 297 295 293 296 294 293 296 293 300 296 307 299 292 293 293 292 296 292 290 290 288 288 289 292 292 293 294 291 291 292 291 293 293 293 292 291 291 292 294 295 296 298
322 322 322 321 321 322 322 322 322 322 322 323 323 323 323 322 322 322 322 322 322 322 322 323 322 322 322 323 322 320 302 296 295 294 297 319 323 323 325 325 322 322 307 299 299 300 298 295 293 293 292 291 293 292 297 293 302 296 294 290 292 293 293 286 286 287 288 290 289 290 290 291 291 292 291 292 288 290 291 292 291 290 292 292 291 294 295 297
322 321 321 321 321 321 321 322 322 322 321 322 322 322 322 322 322 322 322 322 322 322 322 322 322 323 322 322 322 302 294 291 290 293 295 316 322 324 325 326 322 318 307 304 301 299 298 295 293 293 291 291 288 293 294 294 298 295 295 290 290 293 291 290 286 285 286 289 289 289 288 289 290 290 291 288 289 289 292 294 295 294 293 292 292 293 294 297
320 320 320 320 321 321 321 321 322 322 322 322 322 322 322 322 322 322 322 322 322 323 323 322 323 323 322 321 319 295 289 286 287 294 297 315 322 324 322 324 322 307 305 306 298 297 299 295 292 292 291 286 288 292 291 292 297 294 294 294 293 286 288 287 285 285 285 286 287 287 288 288 289 289 289 289 288 289 291 294 296 297 294 291 291 293 294 296
319 320 320 320 320 321 321 321 322 322 322 322 322 322 322 322 322 322 322 322 323 322 323 323 322 323 321 318 296 295 291 280 294 294 312 318 320 320 321 323 320 305 299 296 295 295 295 291 292 290 288 288 286 287 287 291 296 290 289 284 284 284 288 287 286 285 284 285 284 285 288 289 289 287 289 290 291 292 291 292 294 297 293 293 294 293 293 296
320 320 320 320 320 320 320 321 322 322 322 322 322 322 322 322 322 322 322 322 322 322 323 323 323 322 320 312 295 292 291 288 292 296 311 317 318 312 322 321 311 297 297 295 293 294 289 289 290 286 287 287 285 287 288 290 290 293 291 286 286 285 286 285 286 284 283 285 284 285 288 288 286 287 287 288 292 294 288 287 287 292 292 293 292 293 294 296
319 319 319 319 319 320 320 320 321 321 322 322 322 322 321 321 321 322 321 322 322 322 322 322 320 320 316 296 295 288 289 290 295 297 309 313 301 302 312 301 300 296 296 295 292 292 289 288 288 288 287 287 285 289 289 289 289 289 289 285 284 285 284 284 283 282 283 282 282 284 286 286 287 287 282 286 291 292 290 287 287 290 290 291 292 292 293 295
319 319 319 318 317 317 319 320 320 321 321 321 322 322 322 321 321 321 321 321 321 322 322 321 321 320 315 293 290 289 287 293 297 297 296 295 295 294 297 297 296 296 293 293 294 292 292 288 287 288 286 287 287 291 286 288 284 287 288 284 283 284 283 282 283 282 282 282 284 285 284 283 282 283 284 288 289 288 288 288 286 288 289 289 291 292 293 294
319 319 318 317 318 319 319 319 320 320 320 321 321 322 321 321 321 321 321 321 321 322 321 321 322 316 302 295 289 286 292 298 296 296 295 295 294 295 294 293 294 293 294 292 290 291 291 288 291 290 290 288 289 288 287 287 285 287 285 284 285 283 282 283 283 282 282 283 282 283 281 282 282 284 284 285 285 285 286 286 284 288 288 289 291 291 292 293
319 318 318 317 318 319 319 320 320 319 320 321 321 321 321 321 320 320 321 321 322 323 322 322 321 314 297 291 288 283 296 297 297 294 295 295 295 295 295 294 293 293 293 292 293 289 291 289 289 291 292 288 288 286 287 287 287 283 284 283 283 281 282 282 281 280 281 284 281 282 282 280 280 282 284 289 283 285 286 284 285 286 288 289 290 290 292 293
319 318 317 318 319 319 320 319 319 319 320 321 321 321 321 320 320 320 321 321 322 323 322 322 320 299 292 290 286 289 298 297 297 294 295 296 296 295 295 294 293 295 294 293 292 291 291 293 291 292 286 290 284 287 286 287 285 284 285 283 280 280 283 281 281 281 282 282 282 281 281 280 281 280 287 286 280 285 284 285 284 286 286 287 288 290 290 292
318 317 317 319 319 320 320 319 319 320 320 321 321 321 320 320 320 321 321 321 322 322 323 321 312 300 297 292 291 295 293 293 296 295 295 293 294 294 294 292 294 293 295 294 292 293 290 291 292 290 290 286 285 285 286 285 284 286 283 281 282 279 279 281 281 281 282 283 281 282 278 277 279 284 287 281 281 282 284 283 284 285 285 285 286 288 290 291
317 317 318 319 318 320 320 320 320 320 321 320 320 320 320 320 320 321 322 320 323 323 323 319 298 295 295 288 294 297 296 294 296 295 293 294 295 295 292 294 294 291 293 294 292 291 293 290 292 291 291 289 287 289 285 281 282 283 281 280 278 277 275 281 280 281 282 283 281 284 278 280 280 283 284 281 281 282 282 283 283 283 284 285 286 287 289 290
317 316 318 319 319 319 320 320 320 320 320 320 319 319 320 320 320 321 322 321 322 323 318 311 299 297 290 290 294 297 313 297 295 293 293 294 292 293 292 294 296 292 291 292 294 292 292 292 293 288 287 287 288 287 280 278 278 279 280 275 275 278 276 279 283 281 281 282 281 283 277 280 283 283 284 279 280 280 282 282 282 282 283 284 285 286 287 289
317 317 318 318 318 319 320 320 320 319 320 320 318 319 319 321 320 321 323 320 322 322 308 302 299 292 287 288 294 304 294 293 294 294 292 294 293 292 292 291 291 290 292 293 293 292 291 291 288 285 287 286 282 276 277 277 277 276 278 273 275 276 276 280 282 281 282 282 282 281 280 280 282 283 281 278 279 279 281 281 281 280 282 283 284 286 287 288
317 317 318 318 318 318 319 319 319 319 320 320 320 320 320 320 321 321 320 320 316 310 299 296 296 297 291 294 296 293 290 291 293 293 292 292 294 292 292 291 290 291 289 290 292 294 290 289 288 287 284 282 279 278 278 272 273 274 276 275 275 277 277 277 280 281 280 282 279 280 278 280 283 283 282 279 278 278 279 280 281 281 282 282 284 285 286 287
316 317 318 318 317 317 317 317 317 318 319 318 315 316 310 319 319 314 308 306 303 300 300 299 293 290 287 291 289 290 291 289 292 292 291 291 292 291 293 292 290 288 286 289 290 289 289 288 285 283 278 278 280 277 274 271 274 276 276 276 278 275 276 279 277 280 281 281 279 278 278 279 282 284 284 285 281 279 281 282 283 282 282 281 282 283 284 286
317 317 317 318 318 316 317 317 316 316 317 318 317 317 316 313 300 297 296 298 295 289 289 290 291 282 281 289 289 289 291 292 293 290 291 291 292 291 291 291 288 290 286 285 287 288 285 285 282 279 280 279 280 280 279 278 277 280 278 278 276 276 278 276 278 278 280 279 279 277 278 281 283 284 286 284 281 280 281 282 282 282 282 282 281 282 283 284
316 316 316 317 318 317 317 317 316 316 316 308 302 303 298 297 290 294 291 293 288 289 289 291 290 288 289 287 289 292 293 293 292 290 289 290 292 290 290 288 286 285 284 285 282 286 284 281 279 278 279 279 278 279 279 278 280 279 278 278 277 277 279 278 277 279 279 279 278 279 279 279 281 282 284 285 280 279 280 281 282 282 282 282 282 281 282 283
316 316 316 316 317 318 317 316 315 315 315 299 298 297 294 290 288 287 286 287 288 290 291 289 288 288 289 289 289 290 289 289 288 289 290 292 290 289 288 286 282 285 280 281 284 284 285 280 278 280 280 278 279 278 279 279 280 280 279 277 277 277 277 280 280 279 279 280 275 277 276 279 280 282 282 282 277 279 279 280 280 281 282 282 282 282 282 283
315 315 315 316 317 317 317 317 316 315 312 298 298 297 295 292 296 294 289 289 289 288 290 289 288 289 289 289 290 288 285 285 287 289 288 291 287 286 283 283 283 281 278 282 280 277 278 279 279 277 278 278 279 278 279 280 279 277 278 275 274 276 277 278 278 277 278 279 278 275 274 277 280 281 282 281 281 281 281 280 281 281 281 281 281 281 282 282
315 315 315 315 317 317 316 317 314 311 299 300 298 297 297 303 301 296 292 285 286 290 290 288 291 284 288 289 290 292 286 283 282 285 287 289 285 286 285 282 280 279 281 280 283 277 279 275 278 277 278 280 279 278 278 277 279 278 276 274 275 274 274 273 276 275 278 278 275 275 275 277 280 281 279 280 277 278 278 279 280 281 281 281 281 282 282 281
314 314 314 316 316 317 316 313 312 303 299 298 297 299 301 298 298 299 297 288 287 289 291 290 289 286 286 288 290 286 285 284 284 284 289 287 284 285 283 279 278 281 282 280 278 279 278 279 279 278 279 280 280 277 278 278 276 274 277 275 275 275 274 275 274 275 276 274 277 274 273 274 274 274 277 278 275 277 279 278 278 280 280 282 281 281 282 282
314 315 314 315 316 317 315 310 299 295 297 296 295 297 296 298 300 301 290 282 281 286 294 292 289 287 289 292 288 290 285 285 283 286 287 289 286 283 283 282 283 279 277 279 278 279 279 277 278 280 278 278 279 278 276 278 274 271 274 278 278 276 276 274 273 274 272 269 275 274 269 267 271 275 277 279 277 278 276 277 278 278 278 279 280 281 282 283
314 314 315 315 317 315 314 298 294 295 297 296 297 300 296 297 297 292 284 277 273 278 287 286 292 289 293 288 287 285 288 284 288 287 291 289 292 286 285 283 282 281 278 279 280 279 279 278 279 279 279 277 278 276 275 278 275 272 274 275 275 274 275 273 273 272 264 266 272 273 267 266 274 277 280 278 275 277 279 277 279 280 280 278 280 281 282 282
314 315 315 316 315 315 297 291 294 294 294 294 302 297 296 299 298 296 289 271 273 284 284 291 290 287 292 289 288 286 279 279 287 288 287 289 289 290 286 279 281 282 280 279 278 275 278 278 277 277 278 277 277 277 276 278 273 273 274 274 274 274 275 274 274 273 270 271 275 274 273 265 267 277 277 275 276 278 279 280 280 279 278 278 279 280 281 282
315 314 315 316 313 309 295 294 297 295 292 300 297 297 298 298 294 292 280 265 268 288 284 286 289 294 293 289 285 285 284 284 282 287 288 288 288 285 286 282 282 280 280 278 272 276 278 276 277 277 277 276 276 275 275 278 275 273 275 276 276 275 274 273 274 272 272 271 271 271 274 269 266 275 275 273 278 278 278 279 279 279 278 277 278 279 280 281
314 315 315 315 313 311 299 300 296 296 299 297 296 297 298 293 291 283 272 270 281 283 296 287 296 292 287 289 287 282 284 284 282 285 286 288 287 287 283 282 279 280 280 279 277 274 279 278 277 278 276 276 276 274 275 278 276 276 276 275 275 275 275 274 270 271 268 268 268 271 273 267 269 274 277 273 275 275 277 278 279 278 278 277 278 279 280 281
315 314 315 314 305 302 298 297 299 301 299 297 297 297 292 292 285 278 270 267 286 277 289 289 289 284 282 284 279 282 286 283 282 283 285 284 287 284 285 284 281 281 281 278 279 277 279 281 281 278 277 276 274 276 274 276 276 277 276 275 272 272 272 271 271 266 265 263 271 273 273 272 267 274 277 277 276 277 277 277 277 277 278 278 278 279 281 281
314 314 312 309 297 297 297 297 295 298 297 296 295 291 289 284 272 266 265 274 284 283 286 285 285 283 280 281 278 278 284 280 283 280 282 282 285 280 282 283 280 275 273 274 276 277 278 279 280 278 280 276 277 277 276 277 276 275 274 272 272 272 269 270 264 265 263 262 267 269 273 272 265 272 276 277 278 274 278 279 280 279 280 281 279 279 279 280
313 312 314 303 302 296 296 293 298 298 297 296 293 289 284 278 276 272 272 284 279 280 282 281 282 280 280 281 280 277 281 280 280 280 280 277 277 278 278 275 274 271 268 270 272 274 274 277 277 278 282 278 276 276 275 276 275 274 272 270 266 263 262 261 263 263 262 265 269 269 272 271 271 277 282 281 279 279 277 280 282 281 281 280 280 280 279 278
311 311 310 303 299 295 299 298 296 299 295 293 290 285 275 268 269 265 273 276 278 283 282 282 280 281 280 280 278 278 280 280 281 281 279 279 279 276 276 278 275 279 273 272 272 271 274 274 276 279 278 279 277 275 271 273 274 273 273 265 263 261 260 258 260 258 259 267 269 269 270 269 271 276 281 281 284 285 284 280 280 281 282 282 282 280 278 277
309 306 297 300 298 300 298 296 295 297 294 292 285 284 277 270 269 282 275 276 281 281 282 280 279 278 281 279 278 280 278 279 280 281 280 276 276 276 275 278 278 280 275 274 274 267 268 274 275 278 277 277 279 278 274 270 273 274 272 273 270 262 261 262 255 265 270 267 267 268 265 265 267 276 275 279 280 279 278 278 279 279 280 279 278 277 278 278
308 301 298 295 293 296 296 295 295 294 291 290 282 275 271 266 264 271 273 274 279 280 282 282 280 277 277 278 278 279 278 275 280 279 279 279 276 274 274 276 278 274 273 274 268 268 273 274 274 278 277 278 278 277 275 273 274 274 272 272 267 269 268 266 262 259 257 260 261 264 267 269 275 275 279 280 279 280 282 279 277 279 279 276 278 278 279 279
306 299 296 293 294 295 296 297 292 293 293 287 279 274 270 268 277 275 280 282 281 281 280 278 278 278 275 274 275 279 282 278 278 278 274 277 275 275 275 274 278 279 276 273 266 271 271 271 275 276 277 276 276 276 278 276 271 272 273 267 271 273 273 264 265 266 266 260 265 263 268 272 274 280 282 284 284 284 284 278 276 277 277 276 277 278 279 278
294 295 295 293 294 294 295 294 294 293 290 283 278 273 269 276 279 277 286 283 283 281 276 275 272 278 273 273 274 274 277 280 277 277 274 275 276 277 277 277 277 279 277 277 272 273 271 273 273 277 278 277 275 277 277 277 275 274 267 272 274 273 272 268 264 259 257 260 266 265 269 271 267 272 273 276 278 279 279 277 277 276 276 277 277 277 277 278
296 293 294 292 295 294 293 295 293 290 287 282 276 286 277 282 283 283 282 282 283 281 278 275 273 280 272 273 276 274 278 277 275 277 273 274 278 278 277 277 279 279 279 278 276 274 274 271 274 275 276 277 278 279 278 279 277 276 271 275 273 266 268 267 262 262 259 259 262 263 262 265 268 274 278 277 276 277 278 279 279 279 278 278 278 279 278 277
290 291 290 295 296 296 296 291 291 288 283 279 271 281 282 281 282 282 281 283 282 280 279 276 275 276 276 271 273 276 275 274 273 277 275 274 276 279 281 278 280 277 278 278 276 274 276 270 273 275 276 277 276 276 271 273 277 276 277 275 275 272 266 264 269 262 262 267 259 268 263 272 270 273 274 275 275 275 276 277 276 277 277 277 277 277 277 277
293 290 287 294 295 295 294 295 287 284 282 275 271 276 280 280 282 281 280 283 282 281 277 277 278 275 276 277 275 275 274 275 273 274 275 274 277 280 281 281 279 277 276 278 277 277 273 273 266 272 273 275 273 275 274 275 270 272 272 269 270 269 273 271 267 265 267 261 261 261 266 270 272 274 274 275 275 275 274 275 275 275 276 276 277 277 277 277
287 285 288 294 296 295 294 291 285 281 278 278 279 281 282 283 283 283 282 282 284 284 281 280 277 277 275 277 275 276 277 275 273 274 275 274 276 275 278 280 279 278 279 278 278 275 272 272 270 269 269 271 276 277 277 276 277 274 275 272 274 270 267 266 269 266 263 266 264 259 267 269 274 276 275 274 275 275 275 274 275 275 277 277 277 277 277 278
286 281 286 294 296 294 290 282 278 279 279 280 281 282 285 290 282 282 282 281 282 282 281 282 278 279 277 277 277 277 277 274 274 275 275 275 277 278 278 277 278 279 279 274 274 276 275 269 270 270 275 276 278 275 275 276 276 274 276 273 275 272 270 268 267 270 263 267 261 259 257 265 273 274 276 276 275 276 276 276 276 276 277 277 277 278 278 278
283 285 291 293 293 294 282 274 280 278 279 280 281 282 281 282 281 282 282 282 281 281 282 280 280 279 279 281 279 278 277 275 275 275 274 276 275 277 276 277 278 279 277 275 276 276 283 273 266 273 276 276 275 272 273 274 277 276 275 272 272 271 274 274 271 267 266 263 264 264 262 267 274 275 277 277 277 277 278 277 276 276 277 277 277 277 278 278
283 287 291 292 293 291 286 279 278 276 275 280 282 283 282 282 282 282 282 281 281 281 280 280 280 281 280 279 277 279 278 273 276 277 277 276 277 278 274 277 278 280 280 278 278 279 273 273 271 265 268 274 277 273 272 274 274 271 269 272 273 272 271 268 266 264 266 271 271 265 266 271 272 276 277 277 277 277 277 278 277 276 277 277 278 278 278 279
284 285 285 287 291 291 287 280 278 274 275 280 280 281 280 282 282 282 283 281 282 279 280 280 281 281 281 280 279 279 279 279 277 276 275 274 277 277 276 276 277 278 280 281 285 279 275 272 270 268 268 267 267 269 272 270 270 273 272 270 272 271 273 270 270 270 268 271 271 267 270 275 274 276 276 276 277 277 278 278 278 277 277 277 278 278 279 279
287 280 280 283 284 285 282 280 278 280 277 277 277 277 280 279 283 281 281 284 282 281 280 282 280 280 279 279 278 277 278 279 279 273 271 272 272 275 278 276 277 280 283 287 281 279 271 271 271 275 274 273 275 277 276 276 276 274 274 273 270 270 272 272 269 266 269 271 271 274 274 275 274 272 274 275 276 275 276 277 277 277 277 278 278 278 279 279
281 277 277 282 281 281 282 279 283 281 281 280 276 278 277 279 279 281 282 284 282 284 282 282 282 280 278 279 276 276 276 277 278 275 277 277 273 275 275 278 280 280 284 283 281 276 272 272 276 272 274 277 279 278 279 277 274 275 274 275 275 272 271 271 271 270 276 272 268 276 276 272 270 273 274 275 276 276 277 277 277 277 277 277 277 278 279 278
282 279 282 286 283 281 281 280 279 280 282 282 279 280 279 278 278 278 282 283 282 280 282 280 281 281 280 280 279 274 274 276 275 272 272 272 274 277 281 280 280 280 282 279 277 277 274 271 272 271 274 275 276 276 277 276 276 275 274 273 271 272 271 268 270 274 274 271 269 273 273 271 271 273 274 275 276 275 276 277 278 278 277 277 277 277 277 277
283 283 283 284 282 277 279 283 282 280 280 280 282 282 279 279 278 281 280 280 280 280 282 276 278 278 279 279 281 274 275 275 272 272 273 275 276 276 278 278 280 278 279 278 276 272 273 273 272 271 274 275 276 276 275 274 272 270 270 271 272 271 270 271 271 273 271 270 271 271 273 272 273 274 275 277 277 276 276 278 279 277 276 277 277 277 276 276
284 285 284 280 280 277 277 279 281 280 280 282 278 280 280 278 280 281 282 281 278 280 281 280 280 279 279 279 279 276 278 281 280 278 279 277 280 277 276 278 277 279 278 277 275 275 275 272 275 269 270 273 276 272 269 271 270 270 271 272 272 272 272 272 271 272 271 270 271 271 270 270 274 277 276 278 277 277 277 276 277 276 276 276 276 276 275 276
288 286 284 283 281 280 279 278 280 279 277 279 278 280 281 278 280 280 280 282 283 281 279 281 281 280 279 278 279 279 282 282 282 283 284 282 278 282 278 278 280 278 276 272 271 269 271 269 268 268 268 271 275 271 272 272 272 270 269 270 271 271 269 271 268 272 270 267 269 269 267 268 273 276 275 276 276 275 275 275 276 275 276 276 276 276 275 275
285 286 281 280 277 279 280 277 277 276 275 280 281 281 280 281 279 279 278 280 280 282 282 281 281 281 278 279 279 281 283 282 283 284 284 284 283 283 282 281 280 277 274 271 269 269 268 266 267 265 268 271 275 274 272 273 272 268 266 269 271 273 273 272 273 272 272 271 268 266 267 272 274 275 272 273 274 274 275 275 276 275 275 275 275 276 275 275
Wind_Speed
5 4 4 4 5 5 5 5 4 4 4 4 5 6 6 5 5 5 4 3 2 3 5 3 4 5 3 2 3 4 4 3 2 1 0 4 6 7 5 3 2 1 0 0 1 2 1 1 3 1 3 1 1 0 2 1 1 1 1 2 4 3 1 3 4 5 1 0 2 4 6 3 3 1 1 0 1 1 0 4 2 3 3 1 3 2 2 8
5 5 4 4 4 5 5 5 5 5 5 5 6 6 6 6 6 5 4 3 1 3 5 5 3 3 3 3 2 3 5 2 0 0 3 3 4 6 6 4 1 3 4 1 1 1 2 1 2 3 3 0 1 1 1 1 1 2 1 2 8 4 5 3 2 3 2 5 3 5 5 5 5 6 3 2 2 2 3 4 3 7 6 1 1 3 8 9
6 6 5 4 4 5 5 5 5 6 6 6 6 6 6 6 6 5 5 3 1 1 4 5 4 3 3 3 2 4 1 2 3 2 1 3 6 6 6 4 2 4 3 0 1 2 1 3 2 2 1 1 1 2 0 2 2 3 3 5 6 4 3 3 3 4 4 2 1 3 3 6 2 4 1 3 1 1 9 7 4 9 13 8 2 5 7 9
7 7 6 6 6 5 5 5 5 6 6 7 7 7 6 5 5 5 5 4 2 1 2 3 3 3 3 3 2 1 3 3 0 2 2 6 6 7 5 4 6 4 2 1 2 2 3 3 2 2 1 1 2 0 1 3 2 2 2 5 3 3 2 4 5 4 2 1 1 3 1 3 4 4 4 3 1 8 10 10 11 15 18 9 7 8 7 11
8 8 7 7 7 7 6 5 5 5 6 7 8 8 7 6 6 5 4 4 3 3 2 2 3 4 3 1 1 2 3 2 2 1 5 5 5 6 5 5 6 4 2 2 2 3 3 2 1 1 1 2 1 0 3 3 3 3 7 3 3 0 2 5 3 2 1 0 1 1 3 6 2 1 5 7 7 10 8 10 12 12 6 9 10 10 9 12
10 9 9 8 8 8 7 6 6 5 5 6 7 7 8 7 7 6 5 4 3 2 3 3 4 4 0 3 2 3 3 0 0 1 3 4 6 4 3 6 6 4 4 2 1 1 2 2 2 0 0 1 3 3 3 2 1 5 2 2 3 2 2 1 0 1 1 0 3 1 4 2 5 2 5 8 13 6 2 1 5 10 6 11 10 12 12 14
10 9 9 9 9 9 9 7 7 6 5 5 6 6 6 7 7 5 5 5 5 4 5 4 5 4 3 5 3 6 1 4 0 7 3 5 5 5 4 7 7 4 2 1 1 0 2 2 1 2 1 0 4 3 4 0 2 3 7 0 3 2 5 2 1 2 0 3 3 2 1 4 2 6 1 8 15 13 2 0 1 2 4 9 10 12 16 18
9 10 10 10 8 7 7 6 6 7 6 4 3 4 6 6 6 5 4 5 6 5 5 5 4 2 2 2 1 1 1 2 3 4 3 6 5 4 6 3 2 2 1 1 2 1 2 2 2 1 1 4 2 2 1 1 0 3 5 2 2 0 2 2 1 1 1 3 2 0 2 6 5 4 2 9 16 11 8 0 1 4 6 8 11 13 13 14
9 9 10 11 11 9 8 5 4 5 5 4 3 3 5 6 6 5 4 4 4 5 5 4 3 2 3 4 2 0 2 2 6 2 5 6 7 4 5 0 0 1 0 1 1 2 2 3 1 4 3 1 1 1 2 0 6 2 4 1 0 1 3 2 2 3 2 3 0 1 8 6 5 4 9 18 14 8 5 4 3 5 7 10 13 14 14 14
8 8 8 9 11 10 9 9 7 4 4 3 3 3 4 5 5 4 4 4 4 4 5 4 3 4 2 2 2 1 3 5 3 1 4 5 7 7 8 3 1 1 1 2 4 3 2 3 1 3 1 1 1 1 0 3 3 1 0 0 1 2 3 1 3 2 1 1 0 3 5 5 2 3 11 4 6 2 4 6 3 7 10 11 10 11 12 14
8 7 6 6 8 9 9 8 7 4 3 2 3 3 4 5 5 4 4 5 5 4 4 4 3 3 0 2 3 3 3 4 0 2 3 5 7 6 3 3 1 1 1 1 0 4 1 2 2 2 0 2 2 0 0 1 1 3 1 0 1 6 3 3 1 5 1 3 3 4 7 4 3 1 12 15 0 2 5 5 5 6 8 10 11 11 11 12
8 8 6 5 7 7 6 5 3 1 1 2 3 3 4 5 5 5 4 5 4 4 3 1 2 2 3 4 4 3 2 3 1 1 3 4 5 4 2 3 0 0 1 1 1 2 3 1 4 1 3 0 0 1 0 1 2 0 1 3 5 6 4 1 3 2 3 3 3 3 4 6 3 7 18 6 2 2 5 7 6 8 7 6 7 8 8 13
9 8 7 7 7 4 3 1 1 3 4 4 4 4 4 5 5 5 5 4 3 3 3 3 1 2 2 1 5 8 2 2 1 6 3 3 4 0 0 2 1 1 1 1 1 1 2 4 4 3 0 2 1 0 1 3 1 0 4 1 7 6 7 3 0 1 3 2 3 1 7 6 9 17 16 1 3 2 3 7 7 6 6 6 6 9 10 9
9 8 7 7 5 2 1 1 4 5 5 5 5 5 5 5 5 4 4 2 3 4 4 3 1 3 2 2 5 2 2 1 3 5 4 4 6 6 2 1 2 2 1 0 2 1 2 1 5 3 1 1 0 1 2 4 4 1 2 2 1 6 5 1 1 1 1 1 2 1 5 11 8 13 10 4 5 6 7 8 8 7 7 7 8 8 11 12
8 8 7 6 4 1 3 4 5 6 6 6 6 5 5 5 4 3 3 1 4 4 5 3 3 2 1 2 4 7 3 0 3 2 2 5 5 4 5 9 8 5 3 2 1 2 4 4 3 2 0 0 1 1 2 3 4 2 3 5 4 3 6 9 2 5 3 1 1 2 7 13 12 11 7 0 2 4 8 9 8 8 9 9 8 10 11 13
8 7 6 5 3 1 3 5 7 7 7 7 7 6 5 4 3 2 2 1 3 5 1 0 2 3 2 1 1 1 3 1 2 2 1 2 2 2 3 6 3 4 6 1 1 3 4 7 6 1 1 1 5 3 3 4 3 4 1 5 5 0 6 8 1 2 1 1 1 5 10 8 13 9 7 1 4 5 8 10 8 9 12 11 10 10 11 10
7 7 6 5 3 1 3 4 6 6 6 7 7 5 6 5 5 3 4 5 2 0 1 0 0 1 1 2 1 1 2 2 3 2 4 1 1 1 2 4 2 6 6 2 5 1 4 3 1 1 4 3 2 4 2 4 5 4 2 3 2 3 4 4 7 2 1 1 3 3 5 11 17 12 9 2 5 4 6 12 12 11 11 12 11 10 11 12
7 6 5 5 2 1 3 4 4 4 5 6 6 6 3 4 6 8 7 5 2 1 1 2 3 2 3 4 0 0 0 4 4 4 2 3 3 4 1 1 1 2 4 2 4 1 3 0 3 2 3 3 1 2 2 6 2 1 2 3 7 2 4 7 2 2 1 1 6 3 6 17 21 20 14 14 7 8 12 16 16 14 13 12 11 12 13 13
6 5 5 5 3 0 2 2 2 1 4 6 7 8 8 9 4 3 4 1 0 1 1 1 1 1 2 1 5 6 2 4 0 3 4 5 3 1 1 1 3 1 1 2 2 1 3 1 3 2 3 2 3 6 8 8 3 3 3 4 3 5 7 5 5 4 1 5 6 6 11 17 19 18 18 9 6 10 16 16 14 14 13 11 11 12 12 13
6 5 5 5 3 2 2 1 3 4 5 4 3 2 3 1 2 1 3 2 1 1 1 1 0 2 1 3 3 4 2 3 2 1 2 1 2 2 2 1 2 5 2 2 3 1 1 1 3 6 8 7 4 6 4 4 4 2 2 1 6 5 10 3 4 5 1 2 9 9 10 15 20 20 19 18 3 10 13 15 16 14 13 12 12 13 14 14
5 5 4 5 4 2 3 1 4 4 5 5 4 4 0 2 1 2 1 2 1 1 0 1 3 0 1 1 1 4 1 2 1 1 2 0 0 1 2 2 3 0 1 1 2 2 1 2 7 9 8 6 4 4 3 3 1 2 1 3 8 3 11 5 2 2 4 1 4 0 6 18 21 20 19 15 6 13 15 16 16 18 14 12 12 14 14 16
5 4 4 5 4 3 4 1 3 5 5 4 3 1 1 2 1 1 2 2 0 1 2 2 1 1 2 2 1 4 4 1 2 2 4 2 2 1 3 3 1 3 2 1 1 1 1 6 9 3 4 2 2 3 2 2 2 1 2 2 3 8 6 10 2 2 1 1 10 2 7 19 24 21 18 14 13 12 11 12 15 13 13 10 10 12 14 9
5 4 4 4 5 3 4 2 4 4 1 2 1 1 1 1 0 1 3 3 1 0 0 1 0 2 1 3 0 2 1 0 1 3 4 4 2 2 0 1 1 0 0 1 5 0 5 6 9 4 3 3 1 2 3 2 1 3 1 1 8 3 3 7 2 3 1 2 5 4 10 17 21 17 12 14 7 7 6 7 11 9 12 12 13 12 10 11
4 3 4 4 3 3 3 2 1 2 2 2 3 1 1 0 1 1 1 1 2 2 0 0 0 0 2 0 0 2 1 1 1 3 3 3 1 2 1 2 1 1 3 0 4 7 10 2 1 4 2 3 2 0 2 1 6 2 4 5 6 4 4 7 5 4 5 2 0 5 7 11 8 8 11 5 2 4 7 5 7 8 10 11 8 7 11 15
3 3 3 4 3 2 4 1 2 0 2 2 1 0 1 1 0 1 2 2 1 1 1 1 3 1 1 1 2 1 1 0 4 2 3 1 0 1 0 1 1 3 2 1 2 2 10 5 2 2 1 1 2 3 4 4 5 4 7 12 9 2 3 2 4 7 7 6 0 2 8 8 7 10 13 14 7 9 2 4 9 9 9 8 11 15 12 12
4 3 3 3 2 3 3 1 1 2 1 1 1 0 2 1 0 1 7 4 2 2 3 2 0 0 1 0 2 1 1 1 1 1 1 1 1 1 0 0 1 2 2 1 3 3 5 1 1 3 4 2 1 3 3 5 5 1 7 4 3 3 2 1 3 4 5 4 1 3 2 10 10 16 17 8 5 11 9 6 12 10 10 8 11 11 10 12
4 3 3 2 2 4 4 2 0 3 0 1 0 1 2 0 0 1 2 4 1 1 1 1 1 1 2 1 0 1 2 0 1 1 1 2 0 1 1 4 2 1 2 1 3 5 2 1 3 2 2 3 2 5 5 9 4 5 1 5 5 3 0 1 1 2 6 3 6 4 6 5 8 17 4 0 6 9 11 13 11 10 8 9 10 10 10 11
4 1 2 3 4 2 1 3 2 1 2 0 0 1 0 1 2 3 4 2 1 1 0 1 0 1 0 1 5 1 2 2 2 1 0 2 0 2 2 2 3 3 1 1 4 3 3 2 2 2 1 2 7 6 4 9 7 3 2 3 1 1 2 2 1 3 1 4 12 3 2 1 6 13 1 3 8 11 11 11 10 9 8 7 9 11 11 11
5 2 4 5 7 5 2 2 3 1 0 1 2 0 2 4 6 6 3 1 1 1 0 1 1 0 5 1 1 1 1 2 1 0 3 1 3 1 0 1 2 2 0 4 8 2 2 2 4 6 5 8 5 2 5 10 5 1 4 4 4 3 3 2 2 2 2 1 11 6 8 3 9 10 10 1 2 8 11 11 10 9 9 8 7 9 10 8
7 3 5 5 3 1 2 2 3 1 1 1 1 2 3 2 3 1 3 3 1 0 0 1 0 2 2 1 2 4 0 2 0 5 3 2 4 4 0 2 2 0 2 2 4 7 1 3 5 4 7 4 3 1 3 0 2 4 4 1 2 5 2 3 5 2 3 1 15 5 12 6 6 8 11 5 7 9 8 7 7 8 9 10 10 10 8 7
7 6 4 4 1 2 1 1 2 1 1 1 1 3 4 8 2 3 1 3 0 1 0 2 1 5 3 2 5 2 0 1 3 3 1 2 1 4 1 1 3 2 2 4 6 5 1 1 1 3 3 3 3 3 3 1 2 2 1 1 5 2 4 2 3 4 1 8 8 4 10 4 7 11 7 10 7 4 7 8 9 9 9 9 7 6 7 7
6 7 6 4 0 0 0 2 1 1 1 0 3 5 4 3 4 1 2 3 1 1 1 3 1 1 2 1 1 2 1 4 1 2 1 1 1 0 2 3 2 3 5 1 3 3 4 8 2 4 3 8 2 2 1 2 1 3 2 2 1 6 5 4 2 2 6 9 2 1 4 2 12 16 16 12 10 10 9 9 11 10 11 9 10 10 5 4
5 3 8 5 2 2 1 0 0 1 0 2 6 4 2 3 1 3 1 2 1 1 1 1 2 1 0 2 3 2 1 1 1 0 1 1 1 6 3 3 4 3 4 1 3 5 9 0 0 4 2 5 7 5 2 0 3 6 5 4 3 2 1 5 6 2 5 7 2 0 1 6 3 10 16 21 24 16 12 11 12 12 12 12 10 8 6 4
6 4 5 2 3 1 0 0 1 1 1 4 5 5 6 2 3 5 1 3 1 1 2 0 2 1 1 4 1 0 2 1 1 1 1 2 1 3 2 1 4 1 1 0 1 1 4 9 4 6 3 3 8 6 8 2 7 8 2 7 8 7 3 6 3 7 10 7 2 4 2 8 5 9 1 10 10 8 6 5 6 8 11 9 7 8 10 9
6 8 3 1 2 1 1 1 1 1 4 6 9 5 3 5 2 1 1 2 2 1 1 0 1 3 3 0 2 2 3 2 0 1 1 1 5 2 3 3 3 4 2 1 4 2 6 8 5 1 0 5 8 1 4 6 3 3 3 5 4 8 6 7 5 4 3 5 5 2 7 6 9 1 10 8 9 11 11 6 5 11 7 5 9 9 10 9
3 2 1 2 1 1 0 0 1 2 6 7 5 1 3 4 2 2 1 1 0 1 4 1 1 1 2 3 1 1 3 0 2 1 2 3 3 3 2 3 7 11 8 6 4 2 1 5 1 4 3 5 3 2 2 2 3 2 4 6 6 1 5 2 2 0 1 3 12 4 9 9 7 12 11 19 18 19 15 6 3 7 7 6 7 9 8 9
2 2 2 3 1 2 0 1 1 5 8 8 5 2 4 3 3 3 2 1 1 1 2 5 3 1 2 2 1 1 2 2 3 1 4 1 6 7 2 4 5 5 6 4 4 4 4 10 3 5 7 2 1 1 2 4 3 7 3 8 1 2 3 4 4 3 1 4 9 3 11 10 4 12 3 4 6 11 8 9 10 7 8 10 8 7 9 10
1 1 1 1 2 2 1 1 1 6 6 4 1 6 1 0 0 0 0 1 0 2 1 1 3 3 2 0 4 0 1 0 4 1 3 1 4 3 2 1 1 2 4 1 2 4 3 9 3 1 1 2 1 0 6 4 2 6 3 2 2 4 2 2 4 4 3 5 7 5 3 7 4 11 6 8 5 10 13 14 14 16 14 12 12 15 14 12
2 2 1 2 2 1 2 1 6 6 4 2 2 1 1 2 0 0 3 2 1 1 0 2 1 1 1 1 3 1 2 2 1 1 2 3 1 3 5 4 0 2 2 5 1 1 1 3 6 0 1 1 1 3 6 2 2 2 2 3 0 1 3 3 6 2 4 9 3 9 2 12 2 4 5 6 11 12 13 14 11 12 11 11 12 12 12 13
1 2 2 1 3 2 1 1 4 6 5 2 2 3 0 2 0 1 1 0 0 1 3 0 0 2 1 7 2 3 2 2 2 3 2 3 3 3 3 2 3 1 3 2 0 0 1 2 7 3 3 0 2 6 9 9 5 1 1 4 3 1 3 2 1 4 4 3 4 5 9 5 6 7 6 9 9 10 9 10 9 9 11 11 12 13 12 12
1 4 1 2 3 3 2 7 5 2 1 0 1 1 0 1 0 0 3 2 0 1 2 1 2 3 2 3 4 1 2 1 2 2 4 4 5 6 2 0 3 3 0 4 1 1 0 1 8 5 5 4 12 2 6 2 6 8 11 10 11 6 3 1 13 3 1 4 8 3 14 1 4 7 9 8 7 10 10 7 8 10 12 13 13 13 12 13
2 2 1 3 5 2 2 3 2 0 1 2 1 1 0 2 0 0 0 1 1 1 2 0 1 1 1 3 2 0 0 3 3 1 3 6 2 2 4 6 5 5 5 3 3 3 3 1 0 10 12 13 12 3 1 4 2 3 7 5 6 3 2 3 10 7 1 5 3 2 2 4 1 4 8 9 8 9 9 10 10 10 12 13 13 13 14 13
3 0 2 3 5 2 5 3 1 1 1 1 2 1 0 0 1 1 0 0 1 1 1 1 3 1 3 1 1 1 1 4 5 5 2 2 4 6 4 3 5 4 2 1 0 3 3 2 1 10 10 10 6 3 3 4 1 2 3 3 3 6 6 8 4 2 3 3 3 1 2 4 2 3 7 9 9 8 12 15 14 12 11 12 13 15 15 14
1 0 0 1 3 2 4 2 0 1 3 2 1 2 3 0 1 0 1 2 2 0 1 1 2 3 1 1 0 1 1 2 4 4 4 0 3 3 4 5 5 1 2 2 1 3 1 3 4 5 8 10 13 1 3 3 3 1 3 2 2 2 4 1 1 2 4 10 10 0 15 8 1 2 8 13 15 17 18 16 13 14 14 13 14 13 13 13
3 0 0 5 7 3 1 4 3 1 1 1 2 4 3 1 4 2 1 1 0 1 0 1 1 0 1 0 1 0 2 5 5 2 0 2 4 1 5 6 4 1 1 3 3 1 3 4 2 8 10 13 13 14 15 8 2 3 1 3 2 5 11 3 7 4 10 6 6 5 13 6 5 17 19 19 20 17 15 14 11 11 12 14 13 13 13 13
0 1 5 3 6 5 4 1 3 2 0 1 2 1 1 2 1 2 4 2 3 0 2 1 1 0 0 1 1 1 2 1 6 4 3 3 4 3 2 2 4 5 2 2 3 1 3 1 3 7 10 14 15 13 1 4 8 11 12 6 5 3 4 4 1 3 12 10 12 15 16 16 10 17 19 17 16 19 19 18 12 12 13 12 11 11 11 11
1 2 0 0 3 5 1 3 1 1 1 2 1 0 4 1 3 2 3 0 1 0 1 1 0 0 2 1 2 2 3 3 3 3 6 8 3 5 5 5 6 5 5 3 1 1 1 5 11 5 10 17 19 18 12 9 11 13 14 15 12 6 3 4 7 14 11 11 15 12 13 8 9 13 16 15 13 14 14 17 12 11 12 12 11 11 13 13
1 1 2 0 2 1 0 2 1 2 1 0 1 0 1 2 3 2 1 0 1 0 0 1 1 3 3 3 1 2 2 3 2 4 3 3 3 6 11 0 3 6 2 0 3 1 1 5 5 5 11 11 12 13 8 10 8 8 7 9 10 12 8 6 11 13 11 10 13 14 16 6 6 11 13 13 12 14 15 15 11 9 10 12 11 12 15 15
2 1 1 1 0 1 1 0 1 2 3 1 0 1 1 1 4 1 1 2 1 1 1 1 4 3 3 1 1 3 2 7 4 2 1 6 9 6 8 3 3 6 4 2 2 1 1 7 5 4 12 14 15 9 5 7 4 4 9 11 12 11 9 10 10 11 9 6 11 12 10 10 11 11 13 12 9 13 13 12 7 9 11 12 11 12 15 15
1 1 0 4 5 3 1 1 1 2 2 2 0 1 0 0 3 5 0 1 2 1 1 1 5 5 4 2 3 2 4 4 6 9 4 5 15 1 4 4 3 2 3 0 0 2 2 6 9 5 7 14 14 5 3 3 3 3 12 13 13 8 6 9 9 13 11 4 12 10 8 6 8 10 13 12 7 11 12 13 10 9 12 13 13 14 16 15
0 1 2 4 2 2 1 2 1 1 2 2 3 2 1 0 3 0 5 1 1 1 1 3 5 4 1 1 3 6 7 6 7 12 13 7 10 3 3 4 8 12 7 3 3 5 1 7 4 3 7 12 10 6 7 6 7 6 16 17 17 12 11 12 6 9 9 9 11 10 9 11 14 11 12 11 13 15 15 15 11 10 12 14 14 14 15 15
2 0 2 3 3 3 2 1 1 2 4 1 0 2 0 4 1 2 3 1 0 0 1 3 3 1 3 0 5 5 5 5 10 11 10 10 5 12 4 6 8 3 5 4 1 2 1 2 6 4 7 10 13 9 11 12 10 2 10 13 13 10 8 8 3 8 9 6 6 9 7 9 14 11 16 16 15 15 15 13 8 10 11 13 14 13 14 14
Wind_Direction
283 280 274 271 277 279 280 281 278 262 227 214 224 231 237 241 238 243 241 249 283 316 324 3 25 49 35 341 346 349 28 73 25 346 81 235 209 235 274 316 350 324 137 100 254 275 6 53 100 37 61 86 261 42 241 113 129 75 210 135 260 202 192 220 194 193 210 238 220 192 214 176 241 210 253 91 13 71 358 226 278 313 255 185 265 297 155 144
295 290 283 280 278 281 284 285 282 274 267 244 220 220 223 228 232 242 247 244 300 309 313 335 5 38 5 316 356 43 79 83 68 29 229 269 297 298 306 313 2 109 102 359 88 101 104 41 44 98 101 149 328 237 96 243 121 147 146 138 241 174 239 166 209 203 141 247 184 207 201 200 232 148 222 163 253 201 259 249 229 273 270 288 35 119 148 156
302 299 296 289 282 279 278 276 274 272 266 264 259 235 224 224 227 228 236 228 213 287 306 313 338 2 318 328 2 356 56 8 16 307 277 286 268 280 287 284 181 169 150 202 221 139 117 145 139 93 53 152 291 216 22 266 150 237 127 238 243 215 244 223 204 213 209 124 186 181 233 195 233 162 89 218 216 124 224 228 229 238 247 207 151 156 163 169
309 308 310 312 306 296 282 266 256 251 247 243 245 254 246 232 231 224 219 224 199 204 272 306 324 323 315 330 357 67 70 62 272 258 272 269 283 285 302 206 158 150 119 91 147 109 90 81 86 122 104 167 287 245 175 246 127 282 142 217 229 225 216 257 190 231 214 150 170 179 16 199 236 193 159 200 266 244 247 230 201 215 227 193 171 173 176 176
315 314 313 307 301 296 288 276 260 247 237 231 225 225 234 232 225 226 218 215 206 188 204 269 284 287 292 25 79 86 73 47 275 241 252 289 300 333 328 155 139 134 143 148 70 53 84 113 103 51 93 245 322 17 233 234 197 119 211 214 229 127 221 272 211 206 143 22 124 135 137 225 81 98 210 162 201 243 210 237 219 235 219 164 171 187 179 185
314 313 313 309 304 300 293 286 276 257 239 229 224 217 215 224 220 210 208 199 201 181 185 223 250 255 245 112 64 64 81 104 273 273 269 297 346 360 6 120 119 115 113 77 122 120 109 22 96 107 351 106 220 174 265 197 125 241 275 246 196 197 209 294 158 244 131 151 180 152 229 80 173 243 222 196 217 239 205 194 222 229 190 183 170 165 183 188
311 312 309 306 303 296 292 290 286 274 249 227 218 217 216 214 228 212 187 175 175 174 170 194 217 229 200 92 50 80 106 259 341 253 343 329 6 11 103 105 95 95 106 66 27 82 53 78 99 222 121 349 283 198 266 323 355 200 248 249 265 155 214 199 216 92 189 167 234 220 360 220 196 252 209 204 236 237 180 225 262 238 137 143 159 186 186 191
312 311 305 297 285 276 273 277 284 287 288 275 238 216 213 213 210 215 179 159 156 161 163 189 215 232 180 61 105 315 26 260 250 265 314 335 16 20 103 89 99 97 97 218 152 107 122 119 192 142 209 189 227 161 331 329 58 213 266 224 265 324 247 290 325 336 322 264 273 339 213 244 199 217 38 241 241 243 247 149 118 123 138 164 177 187 197 198
310 307 304 309 312 311 304 295 289 281 283 285 263 218 205 198 197 185 166 145 142 149 165 185 211 207 109 87 106 48 285 239 214 292 12 8 336 44 161 357 97 184 177 60 235 181 135 254 186 177 259 258 218 217 335 147 305 211 227 157 2 279 321 330 338 294 305 295 29 310 257 271 262 283 265 252 250 236 230 223 148 142 157 182 194 192 191 199
309 307 312 310 304 302 306 315 319 308 290 274 246 205 187 180 175 163 153 151 152 159 181 196 190 177 67 87 43 71 261 226 305 317 31 19 354 2 44 87 88 106 63 347 89 111 158 220 133 202 128 194 160 242 146 131 234 165 128 166 176 287 347 333 210 286 296 241 246 211 280 280 316 70 274 217 271 197 169 208 175 166 193 198 198 200 203 198
306 304 299 293 302 313 320 322 323 315 284 247 209 172 160 149 152 153 153 158 159 174 190 206 211 232 66 84 106 194 252 36 268 9 30 40 359 14 312 321 154 77 114 13 239 181 200 177 194 114 73 228 128 306 151 227 147 43 142 31 301 338 277 230 277 271 338 288 182 196 262 288 280 174 245 255 86 150 177 211 199 207 209 205 206 203 207 209
308 308 309 324 327 322 327 336 333 324 157 160 153 142 136 136 147 157 157 157 164 174 192 178 179 134 75 69 126 207 236 193 2 27 52 29 333 279 219 208 160 165 124 359 296 256 191 182 125 135 224 79 316 311 317 249 61 154 33 322 298 349 343 334 221 267 158 259 155 181 290 275 207 232 241 253 146 167 190 213 219 221 224 218 215 214 209 215
319 319 330 344 338 341 323 328 99 114 123 126 125 128 131 139 146 158 158 144 169 166 182 164 228 88 91 16 237 236 289 268 42 17 9 33 320 108 320 156 70 183 182 151 271 274 201 157 138 140 245 106 173 145 196 71 350 188 42 75 328 352 325 298 281 354 149 257 152 231 301 249 252 238 255 102 142 122 190 242 231 233 229 229 218 217 222 223
325 326 336 344 343 324 202 145 121 122 122 124 121 125 134 137 143 151 155 139 164 169 159 159 85 62 80 240 273 274 302 204 38 31 347 326 33 307 6 329 123 57 38 144 254 233 100 117 108 112 131 73 95 322 39 339 17 199 258 64 260 359 276 293 152 159 168 231 168 71 245 278 262 276 266 239 174 170 222 240 239 234 234 228 223 221 225 226
325 328 336 341 337 311 158 135 122 120 121 118 121 124 129 137 132 127 148 107 173 160 151 78 43 75 50 269 264 299 249 45 27 303 307 29 26 344 334 340 333 343 299 198 158 80 120 95 91 44 356 276 20 68 354 13 355 4 13 294 321 173 277 300 229 175 185 344 80 125 269 257 272 277 288 15 189 187 233 243 240 237 236 231 222 224 227 229
324 330 338 333 338 38 151 143 134 130 131 134 132 132 129 130 136 127 123 105 161 153 212 65 0 103 106 331 163 18 38 61 319 302 306 78 57 257 269 292 306 342 22 49 49 109 50 82 70 182 175 5 53 82 19 18 339 349 131 274 284 283 268 338 349 258 350 78 308 169 252 317 290 243 285 290 166 192 230 254 248 239 240 236 227 225 228 234
323 331 334 322 333 87 159 151 133 139 143 142 133 129 139 143 138 123 83 80 98 80 32 212 92 81 112 244 318 25 274 270 280 357 338 33 67 192 357 14 12 338 357 356 24 94 356 63 284 36 37 104 133 96 355 350 311 306 38 229 214 251 299 291 302 350 241 153 260 245 237 246 256 270 269 226 170 180 235 249 248 239 237 233 232 229 230 227
321 331 334 318 335 149 156 132 127 149 163 152 136 144 124 135 127 93 49 34 24 77 76 113 120 53 300 351 189 257 217 292 342 296 244 306 86 26 58 354 322 32 37 15 0 87 334 232 33 198 4 3 36 52 133 246 207 260 308 316 308 298 221 247 310 265 60 240 228 274 264 268 267 272 265 255 217 212 239 245 246 242 237 235 230 232 231 230
318 330 332 321 334 358 165 131 83 84 141 129 106 98 74 73 47 58 98 40 105 336 23 293 41 144 200 254 299 300 265 231 292 49 324 4 352 71 52 77 62 8 336 57 249 63 351 77 30 38 273 295 229 169 191 219 166 236 203 230 221 280 274 226 239 279 171 274 267 240 247 269 274 276 277 260 212 217 240 248 254 250 241 237 231 232 233 233
318 331 334 320 328 323 198 115 22 25 139 81 38 64 19 20 7 296 343 37 121 187 194 224 220 221 301 321 320 278 244 28 143 310 314 312 354 11 42 59 358 55 97 209 294 70 86 154 220 225 225 222 235 195 187 196 161 104 132 179 252 253 279 261 267 261 307 289 248 247 257 268 274 273 275 278 204 233 244 250 252 250 243 238 235 232 233 235
313 328 326 315 313 303 222 129 35 34 79 98 84 70 237 177 60 329 292 269 209 157 101 264 181 177 256 260 298 7 17 315 74 304 341 119 68 113 267 29 23 4 350 243 195 315 58 324 260 227 228 200 205 179 114 84 121 205 225 255 282 205 269 264 262 359 302 196 288 248 303 280 274 277 278 284 254 251 238 247 253 253 244 240 234 236 233 236
310 317 315 300 301 276 211 185 68 68 76 93 76 146 181 196 198 195 120 310 310 209 176 288 195 290 327 199 269 123 84 358 351 315 303 25 311 81 300 92 114 216 321 349 18 16 25 225 244 228 208 134 103 126 137 169 169 78 216 237 306 271 247 287 289 331 284 89 268 355 319 287 285 287 289 278 265 255 243 227 242 241 254 242 237 239 240 239
304 314 305 297 283 263 203 218 52 68 39 41 67 88 192 267 327 175 89 125 252 311 61 29 225 331 326 321 319 101 40 273 251 317 321 24 4 55 282 75 50 318 358 51 196 257 303 279 252 226 138 143 94 72 117 69 79 172 148 269 248 233 18 308 288 354 264 188 280 333 311 287 287 287 273 274 256 255 264 247 245 238 245 243 233 228 230 232
315 310 302 289 284 278 198 215 109 63 32 132 122 161 320 83 72 93 51 269 274 303 85 239 157 190 246 28 238 93 129 274 93 300 332 63 102 216 71 124 99 97 219 117 172 183 218 203 116 108 119 153 192 12 140 162 262 274 196 222 258 253 233 194 264 304 261 310 124 312 279 288 283 306 320 285 224 294 279 274 267 254 240 243 255 241 216 224
327 322 301 283 279 251 218 251 29 155 147 69 50 288 302 280 142 163 86 342 15 317 296 341 108 258 222 41 11 15 255 344 223 238 289 79 230 24 12 188 115 246 183 139 113 289 281 264 156 102 80 79 153 268 235 155 265 311 224 207 227 200 240 295 328 353 354 330 316 37 353 294 292 290 270 277 324 298 275 314 277 256 246 242 241 238 233 232
321 298 276 257 241 225 236 39 272 148 91 173 198 296 331 315 83 101 94 72 306 264 350 226 70 313 69 329 10 138 76 301 228 227 91 295 166 145 124 42 102 279 157 142 215 214 232 356 153 185 153 132 155 202 247 154 209 6 275 190 172 143 120 74 333 38 323 285 268 74 104 278 305 296 285 303 312 292 301 277 270 265 251 234 237 239 231 227
326 277 244 217 151 152 87 235 207 107 6 301 202 343 314 9 266 82 44 343 19 245 174 245 62 266 90 261 105 72 12 285 339 6 40 320 220 313 172 264 3 44 166 178 26 276 110 2 60 56 119 150 213 269 239 155 123 247 239 113 102 104 208 248 101 159 241 279 269 175 173 209 310 281 313 289 327 296 302 288 275 267 259 243 238 239 232 226
350 288 183 135 116 165 190 148 98 136 191 241 10 5 342 144 76 43 79 40 298 27 32 298 216 330 83 320 61 177 232 312 19 242 113 290 92 345 73 231 179 205 190 102 235 257 140 188 176 171 161 167 221 212 186 163 155 219 205 117 117 188 205 157 154 220 254 39 292 105 223 151 246 264 178 6 318 305 288 278 280 279 270 247 245 241 237 233
15 70 134 127 103 93 96 115 124 143 237 280 295 275 129 71 89 100 123 120 239 71 154 61 338 30 336 322 40 20 312 4 188 272 314 339 48 173 351 263 161 154 287 177 219 281 286 183 217 169 152 231 226 251 176 168 208 263 122 84 72 77 70 125 118 117 329 68 274 210 190 196 275 271 296 25 232 261 257 258 259 257 256 267 259 257 246 243
8 58 126 139 82 45 353 44 50 223 311 275 276 156 53 53 33 37 10 261 42 307 157 243 70 268 33 10 304 356 139 300 346 315 29 153 335 36 37 131 125 99 236 356 260 226 261 295 159 144 209 210 153 72 149 230 95 117 95 97 17 45 48 33 67 98 60 244 248 198 192 166 291 254 243 235 218 205 235 281 276 275 274 264 255 253 253 238
7 28 106 75 106 196 93 35 289 281 269 249 184 51 76 38 113 101 214 231 45 255 23 21 283 20 38 34 315 311 36 340 327 22 270 2 287 33 36 319 49 42 29 345 278 313 343 40 212 256 80 113 114 84 29 77 134 128 106 100 358 342 13 45 339 41 134 266 261 253 190 174 193 291 267 225 260 218 195 230 253 263 262 264 263 256 249 246
14 32 54 80 148 62 134 210 233 256 255 117 68 62 65 270 9 175 227 336 43 290 69 283 352 95 21 347 173 313 333 330 323 36 323 342 311 87 210 169 185 1 337 326 307 356 270 211 227 320 207 130 138 90 321 30 31 100 76 31 64 276 21 311 26 283 201 222 266 52 150 357 242 239 275 281 252 254 222 232 240 248 260 264 272 265 266 260
18 76 62 49 20 50 39 167 49 231 33 56 69 51 60 93 255 265 307 322 263 36 292 122 260 1 239 1 273 291 240 208 307 104 160 318 7 272 249 186 199 188 242 275 280 13 279 345 358 224 78 213 138 153 220 324 200 126 153 149 94 321 346 257 268 234 302 286 266 148 334 272 275 295 250 257 266 259 259 234 245 254 258 265 268 292 307 284
33 65 68 347 82 67 162 110 241 156 62 41 74 43 51 57 249 210 282 243 260 357 69 10 342 359 160 215 250 330 334 230 82 293 52 280 37 285 323 267 156 107 73 217 267 207 331 327 262 160 246 151 189 197 181 165 157 200 118 154 182 146 180 275 205 253 259 244 298 284 84 228 151 235 242 240 268 286 261 247 246 259 261 270 296 297 288 283
81 64 90 6 41 31 48 256 47 104 82 71 52 88 137 243 227 206 247 301 283 314 266 26 338 19 306 336 286 276 186 308 82 295 293 147 269 187 219 231 238 115 147 93 267 74 221 229 264 359 200 153 184 223 123 102 85 187 165 78 84 232 123 226 207 190 292 331 329 206 210 195 209 13 312 268 262 270 261 255 258 266 270 305 292 283 277 281
58 343 59 18 39 315 23 275 51 68 94 67 77 71 191 199 352 172 253 181 22 354 296 357 73 339 273 302 306 84 300 188 294 40 288 185 224 219 223 207 177 191 151 174 201 219 7 267 302 309 75 190 200 135 231 146 236 213 116 207 208 175 143 313 349 28 41 56 256 166 292 266 304 295 257 266 276 279 294 339 330 294 320 323 291 299 325 339
30 338 45 329 15 324 300 339 72 83 64 92 93 248 207 281 200 169 250 168 278 138 38 20 295 147 311 296 263 329 268 11 277 64 289 218 303 199 247 264 175 198 214 136 285 184 211 263 260 154 248 240 208 179 291 314 147 96 206 242 226 158 114 139 233 327 62 200 273 120 248 284 52 290 341 358 305 286 308 2 334 338 5 359 334 337 330 321
70 65 120 39 292 307 292 299 70 50 80 82 179 242 198 182 117 150 154 76 357 32 83 145 268 104 284 104 311 250 278 156 292 41 256 188 261 169 144 211 113 164 202 300 167 286 100 307 286 309 93 287 334 145 309 241 171 198 181 273 137 249 275 309 86 268 262 261 266 285 286 271 189 272 352 311 316 321 347 359 6 4 2 357 355 351 345 336
62 84 22 297 314 294 267 60 69 68 65 69 245 359 243 253 248 131 230 150 135 119 182 245 198 301 132 248 237 280 223 228 287 212 17 269 352 207 198 171 30 46 11 137 139 259 9 241 302 331 98 326 344 107 243 242 18 79 357 327 81 110 219 117 202 210 119 269 5 283 67 283 215 237 282 324 359 4 358 11 10 4 357 356 349 348 344 355
23 39 355 302 300 344 329 65 62 49 71 160 231 220 237 286 301 277 340 156 249 131 240 225 230 299 268 227 148 296 292 175 159 254 150 275 257 270 217 351 150 18 41 355 124 143 263 118 263 289 303 56 236 185 219 165 166 202 240 271 349 213 226 116 302 168 188 205 229 283 294 294 358 309 6 24 23 18 16 4 360 356 355 352 359 3 1 7
78 102 268 291 318 309 33 45 54 68 120 252 165 220 320 238 313 331 7 30 304 315 200 198 169 202 222 351 303 207 288 193 207 193 210 291 176 314 354 155 144 109 31 28 5 296 7 192 228 312 342 220 247 180 210 171 183 182 176 217 199 148 211 213 260 72 159 190 244 201 264 314 12 346 17 31 11 22 9 9 2 5 8 12 14 16 18 18
81 43 271 308 326 33 78 50 26 194 99 185 256 174 311 88 26 296 15 334 152 238 12 182 226 229 173 224 214 300 252 283 225 208 261 201 270 189 315 56 108 152 123 200 198 245 157 173 70 278 256 260 266 241 296 203 185 180 161 257 152 187 107 178 258 255 26 249 102 177 63 268 121 327 17 25 19 20 14 18 16 16 20 19 19 19 16 21
55 162 257 340 328 74 65 56 299 41 228 237 313 315 224 322 156 188 130 248 308 133 351 199 210 159 257 202 305 311 185 262 168 209 227 270 262 221 288 53 127 68 71 293 8 238 127 248 299 271 291 282 284 50 33 46 104 325 265 112 106 195 207 231 284 192 241 304 301 314 219 240 58 20 36 28 22 19 20 16 13 21 22 19 20 16 14 14
147 170 31 324 30 86 85 192 232 285 285 310 65 275 185 194 159 338 240 263 172 161 192 254 337 207 295 67 140 267 215 330 258 200 302 133 285 213 288 173 190 204 160 243 125 242 37 273 139 296 326 311 306 39 25 342 61 222 238 280 257 304 342 246 135 145 307 243 261 145 270 258 111 18 38 30 20 19 14 11 18 16 11 13 12 11 11 12
112 341 333 303 2 60 201 189 135 168 280 304 346 324 339 317 202 203 168 251 61 186 117 276 211 33 269 114 261 215 271 188 297 257 69 237 252 345 351 162 305 283 256 303 214 324 203 236 131 280 282 292 296 300 308 337 284 242 45 357 335 188 252 309 272 233 251 255 261 242 263 255 103 20 18 12 7 11 15 5 15 22 11 7 5 3 7 9
94 142 306 341 8 38 74 79 105 135 75 313 342 285 115 305 356 316 155 271 165 194 205 313 346 113 336 29 311 304 274 227 179 274 19 292 299 321 220 280 194 228 321 314 344 37 228 319 203 215 236 255 261 273 241 51 330 315 305 301 276 264 234 223 171 279 255 275 267 257 270 287 350 4 12 3 9 3 354 357 8 11 2 360 2 2 5 8
170 83 316 309 344 38 82 12 60 54 271 169 265 235 329 257 270 338 143 263 4 164 318 167 183 355 283 87 274 300 240 315 293 310 267 272 250 256 285 212 270 261 280 341 7 72 4 283 252 214 248 256 271 279 316 358 300 297 303 302 310 297 237 214 222 255 266 288 271 272 298 349 354 359 4 360 5 4 351 345 351 5 1 354 348 353 3 5
73 254 111 203 135 289 67 327 88 95 50 45 272 70 269 342 357 335 305 126 357 48 194 333 79 251 222 244 335 314 316 272 177 246 316 250 331 315 325 248 206 349 346 266 349 109 255 261 307 95 259 268 277 291 310 304 283 281 306 344 343 331 327 274 261 277 305 267 289 337 338 5 27 9 354 349 6 358 345 332 341 1 350 349 349 1 2 360
106 168 156 322 290 264 141 188 99 123 73 47 284 53 309 38 327 242 233 318 50 335 130 282 299 297 273 258 200 272 308 338 307 226 196 293 316 324 311 338 82 19 50 6 8 168 64 257 278 282 287 291 293 310 312 292 325 2 35 1 354 355 359 5 356 6 1 327 357 338 357 70 23 6 354 346 1 355 331 328 326 2 352 346 358 2 1 358
217 137 276 11 88 99 322 45 85 76 74 343 82 300 163 194 334 323 282 140 320 333 39 193 273 321 292 177 188 216 237 238 273 305 312 323 311 170 254 234 288 4 56 48 3 303 110 286 31 331 313 293 297 340 28 31 308 25 17 13 2 12 28 23 10 4 1 354 356 347 357 4 11 7 356 335 357 340 332 338 354 355 355 354 357 2 359 357
8 108 144 121 65 336 2 20 53 95 77 354 41 307 11 181 342 263 276 175 234 293 177 277 308 315 293 181 207 246 269 276 277 262 271 287 277 321 46 307 42 331 350 8 31 319 44 267 357 12 325 296 308 0 311 319 317 84 28 12 356 2 23 359 25 356 11 348 332 356 10 357 334 353 347 340 344 342 340 333 344 1 356 356 354 356 359 353
84 113 88 101 82 319 48 355 12 58 33 279 104 315 34 330 326 331 333 266 152 214 187 230 255 197 284 351 273 255 271 262 264 265 268 269 269 282 315 338 18 322 309 341 238 32 359 349 328 344 322 290 297 305 315 316 318 307 37 15 343 334 27 1 43 24 18 351 342 12 322 344 321 342 346 336 343 336 336 329 338 356 358 356 351 352 354 349